{"data":{"norad_id":36519,"epoch":"2026-05-25T02:08:29.148864Z","epoch_age_seconds":64552,"freshness":"FRESH","line1":"1 36519U 10017A   26145.08922626  .00000053  00000+0  41680-4 0  9996","line2":"2 36519  82.9600 266.6761 0035955 192.0014 341.2704 13.71664000804763","mean_motion":13.71664,"eccentricity":0.0035955,"inclination_deg":82.96,"raan_deg":266.6761,"arg_perigee_deg":192.0014,"mean_anomaly_deg":341.2704,"bstar":4.168e-5,"rev_number":80476,"period_min":104.98197809376,"perigee_km":967.09799320482,"apogee_km":1020.1081761537,"semimajor_km":7371.7400846793,"source":"CELESTRAK","updated_at":"2026-05-25T13:38:24.477371Z"}}